Location: Tauranga
(37.6860°S, 176.1670°E)
Time: 17:08:57
(UTC+13:00)

Cosmos 1486 Rocket - Pass Details

Date: 24 January 2019
Orbit: 758 x 784 km, 74.1° (Epoch: 17 October)

Event Time Altitude Azimuth Distance (km) Brightness Sun altitude
Exits shadow 22:29:15 12° 343° (NNW) 2,165 6.1 -19.4°
Maximum altitude 22:34:08 88° 251° (WSW) 776 3.9 -20.0°
Drops below altitude 10° 22:39:27 10° 162° (SSE) 2,334 6.9 -20.7°
Sets 22:41:56 0° 162° (SSE) 3,299 7.7 -21.1°
